Location: Cisewo
(53.3833°N, 14.9000°E)
Time: 12:19:39
(UTC+00:00)

USA 229 - Pass Details

Date: 05 August 2021
Orbit: 956 x 1256 km, 63.5° (Epoch: 08 August)

Event Time Altitude Azimuth Distance (km) Brightness Sun altitude
Rises 22:33:48 0° 307° (NW) 4,008 7.4 -19.6°
Reaches altitude 10° 22:37:46 10° 287° (WNW) 3,100 6.4 -19.6°
Maximum altitude 22:41:42 15° 254° (WSW) 2,758 5.8 -19.7°
Enters shadow 22:45:07 11° 226° (SW) 3,073 5.7 -19.8°
